Tracking 31027 objects as of 19-Jul-2025
HD Live streaming from Space Station
objects crossing your sky now

COSMOS 2251 DEB

Track COSMOS 2251 DEB now!
10-day predictions


NORAD ID: 37312
Int'l Code: 1993-036BKC
Perigee: 733.9 km
Apogee: 761.3 km
Inclination: 74.0 °
Period: 99.6 minutes
Semi major axis: 7118 km
RCS: 0.0199 m2 (small)
Launch date: June 16, 1993
Source: Commonwealth of Independent States (former USSR) (CIS)
Launch site: PLESETSK MISSILE AND SPACE COMPLEX (PKMTR)

Note: This is SATELLITE DEBRIS
Your satellite tracking list
STARLINK-30103
Track 1 satellite(s)




NASA's NSSDC Master Catalog

Two Line Element Set (TLE):
1 37312U 93036BKC 25199.16559504  .00000980  00000-0  28510-3 0  9994
2 37312  74.0317 119.4841 0019288 260.1389  99.7591 14.45475962840318
Source of the keplerian elements: AFSPC